Location: Innerarity Island Observatory
(30.3139°N, 87.4867°W)
Time: 03:25:44
(UTC-05:00)

JAS-2 - Visible Passes

Search period start: 31 October 2014 00:00
Search period end: 09 November 2014 23:00
Orbit: 801 x 1321 km, 98.5° (Epoch: 30 October)

Date Brightness Start Highest point End Pass type
(mag) Time Alt. Az. Time Alt. Az. Time Alt. Az.
31 Oct 11.1 05:44:41 10° NNE 05:52:15 49° E 05:59:22 10° S visible
31 Oct 12.9 19:24:17 10° WSW 19:26:23 12° W 19:28:33 10° WNW visible
01 Nov 12.6 04:51:57 10° NE 04:56:51 18° E 05:01:33 10° SE visible
01 Nov 10.1 06:34:32 10° N 06:42:22 73° WNW 06:49:45 10° SSW visible
01 Nov 11.3 18:25:05 10° SSW 18:30:42 39° W 18:37:03 10° NNW visible
02 Nov 11.2 04:40:00 10° NNE 04:47:27 46° E 04:54:24 10° S visible
02 Nov 12.8 18:18:31 10° WSW 18:21:25 13° W 18:24:29 10° WNW visible
03 Nov 12.7 03:47:33 10° NE 03:51:59 16° E 03:56:15 10° SE visible
03 Nov 10.1 05:29:45 10° N 05:37:36 78° WNW 05:44:54 10° SSW visible
03 Nov 11.2 17:19:58 10° SSW 17:25:48 43° W 17:32:24 10° NNW visible
04 Nov 11.3 04:35:20 10° NNE 04:42:38 42° E 04:49:24 10° SSE visible
04 Nov 12.7 18:12:57 10° WSW 18:16:29 15° W 18:20:13 10° NW visible
05 Nov 12.8 03:43:13 10° ENE 03:47:06 15° E 03:50:51 10° ESE visible
05 Nov 10.1 05:25:00 10° N 05:32:50 82° WNW 05:40:03 10° SSW visible
05 Nov 11.0 17:14:53 10° S 17:20:54 47° W 17:27:43 10° NNW visible
06 Nov 11.4 04:30:40 10° NNE 04:37:48 39° E 04:44:22 10° SSE visible
06 Nov 12.7 18:07:31 10° SW 18:11:33 17° W 18:15:52 10° NW visible
07 Nov 12.8 03:39:00 10° ENE 03:42:13 13° E 03:45:20 10° ESE visible
07 Nov 10.0 05:20:14 10° NNE 05:28:03 87° WNW 05:35:10 10° SSW visible
07 Nov 10.9 17:09:49 10° S 17:16:01 52° W 17:23:02 10° NNW visible
08 Nov 11.5 04:26:02 10° NNE 04:32:58 36° E 04:39:19 10° SSE visible
08 Nov 12.6 18:02:10 10° SW 18:06:37 19° W 18:11:26 10° NW visible
09 Nov 12.9 03:35:00 10° ENE 03:37:19 12° E 03:39:35 10° ESE visible
09 Nov 10.1 05:15:30 10° NNE 05:23:15 88° ESE 05:30:15 10° SSW visible
